STARLINK-32637, 62032

Orbit data source: Space-Track

STARLINK-32637, 62032 is a payload satellite owned by SpaceX/Seattle (US) in LEO that was launched on Thu, 21 Nov 2024 UTC via an FALCON 9 launch vehicle from the Air Force Eastern Test Range (AFETR). Payload-class satellites include a variety of spacecraft equipped with specific instruments for various scientific and technological missions. These include communications satellites like Starlink; space stations such as the ISS; scientific satellites like the Hubble; Earth observation satellites from companies like Planet Labs, Umbra, and HawkEye 360; GPS; miniature CubeSats for education and research; and military/defense satellites.

Loading next visibility...
Identifier
62032, 2024-216A
Orbit
LEO
Last TLE update
13 hours ago
Origin
Manufacturer
SpaceX/Seattle
Mission
Operational Commercial Communications
Bus & Motor
STARLINK V2M, Unknown motor
Mass
730 kg wet, ~700 kg dry
Launch date (UTC)
2024-11-21 (7 months ago)
Launch vehicle
FALCON 9
Launch site
Air Force Eastern Test Range (AFETR)
Object type
Payload
Rocket body
Debris
Shape & HBR
Box + 2 Pan, 29 m
Radar Cross Section
36.964 m², Large (>1 m²)

Expand to show TLE details & history

TLE from 13 hours ago
0 STARLINK-32637
1 62032U 24216A   25182.52784266  .00015125  00000-0  36859-3 0  9994
2 62032  42.9984 234.7623 0001153 268.3220  91.7505 15.40702811 35465
Epoch: 2025-07-01T12:40Z
TLE epoch observation values (Epoch: 2025-07-01T12:40:05.605Z)
Latitude
0.00001°
Longitude
124.91694°
Altitude
443.832 km
Speed
7.648 km/s
True Right ascension
15h 39m 02s
True Declination
0° 00' 00"
Sunlit
Object was in full shadow at epoch
Visualization orbit readout
Latitude
3.9419°
Longitude
-62.46762°
Altitude
443.438 km
Speed
7.648 km/s
Apparent Right ascension
02h 29m 15s
Apparent Declination
-17° 28' 17"
Sunlit
Object is in daylight
Visualization observer readout
Local Sidereal Time
13:33:02
Azimuth
327.496° NNW
Elevation
-64.47°
Doppler factor
1
Orbital elements
Apogee altitude
446.777 km
Perigee altitude
445.204 km
Semi-major axis
6,824.127 km
Eccentricity
0.00012
Inclination
42.9984°
RAAN
234.7623°
Arg. of periapsis
268.322°
True anomaly
Unknown
Mean anomaly
91.7505°
Eccentric anomaly
Unknown
Mean motion
3.8501 °/min
Orbital period
93.5 mins
BSTAR
0.00036859
Loading maneuver chart data...
Loading SW <> Apogee altitude chart data...
Loading historical data...
Loading historical data...
Loading historical data...
Loading historical data...
Loading historical data...
Loading historical data...
Loading historical data...

STARLINK-32637 Visibility forecast

Observer location: undefined°, undefined°

Span
Click to sort rows by Start time (UTC) header in descending order
Start Az.
Max El. time (UTC)
Max El. Az.
Max El.
End time (UTC)
End Az.
4 mins2025-07-02 05:58:03.595Z180.865° SSW2025-07-02 06:00:03.595Z143.729° SSE15.901°2025-07-02 06:02:03.595Z106.547° ESE
5 mins2025-07-02 07:36:03.595Z239.888° WSW2025-07-02 07:38:03.595Z107.602° ESE42.789°2025-07-02 07:41:03.595Z73.754° E
5 mins2025-07-02 09:14:03.595Z289.503° WNW2025-07-02 09:16:03.595Z4.806° NNE37.452°2025-07-02 09:19:03.595Z72.162° E
5 mins2025-07-02 10:52:03.595Z293.387° NW2025-07-02 10:54:03.595Z348.041° N42.72°2025-07-02 10:57:03.595Z96.959° ESE
5 mins2025-07-02 12:30:03.595Z264.728° W2025-07-02 12:32:03.595Z214.395° SW27.866°2025-07-02 12:35:03.595Z147.796° SSE
|